Regional Weather Roundup
Issued by NWS

Home | Current Version | Previous Version | Graphics & Text | Print | Product List | Glossary On
Versions: 1 2 3 4 5 6 7 8 9 10 11 12 13 14 15 16 17 18 19 20 21 22 23 24 25 26 27 28 29 30 31 32 33 34 35 36 37 38 39 40 41 42 43 44 45 46 47 48 49 50
711
ASUS43 KTOP 111008
RWRKS

WEATHER ROUNDUP FOR KANSAS
NATIONAL WEATHER SERVICE GOODLAND KS
400 AM CST THU FEB 11 2016

NOTE:  "FAIR" INDICATES FEW OR NO CLOUDS BELOW 12,000 FEET WITH NO
SIGNIFICANT WEATHER AND/OR OBSTRUCTIONS TO VISIBILITY.

KSZ001>006-013>018-027>032-041>047-111100-
NORTHWEST KANSAS

CITY           SKY/WX    TMP DP  RH WIND       PRES   REMARKS
GOODLAND       CLOUDY    29  23  78 W8        30.16S
HAYS           CLEAR     30  19  64 N9        30.17R
HILL CITY      CLEAR     27  25  92 N3        30.18R
RUSSELL        CLEAR     30  27  88 N14       30.15R WCI  19
$$

KSZ061>065-074>080-084>089-111100-
SOUTHWEST KANSAS

CITY           SKY/WX    TMP DP  RH WIND       PRES   REMARKS
DODGE CITY     CLEAR     33  27  78 N12       30.14R WCI  24
ELKHART          N/A     38  20  48 NW5         N/A
GARDEN CITY    CLEAR     31  25  78 N9        30.16R
GREAT BEND     CLEAR     30  21  69 N9        30.16R
LIBERAL        PTCLDY    32  19  59 NW6       30.15R
PRATT          CLOUDY    33  28  84 N9        30.13R
$$

KSZ066>073-081>083-090>101-111100-
SOUTHEAST KANSAS

CITY           SKY/WX    TMP DP  RH WIND       PRES   REMARKS
CHANUTE        CLOUDY    29  22  75 NE17      30.09R WCI  17
COFFEYVILLE    CLOUDY    34  25  69 N12       30.06R WCI  25
HUTCHINSON     CLEAR     34  27  75 N10       30.13R WCI  26
MEDICINE LODGE   N/A     37  30  75 N3        30.12R
NEWTON         CLEAR     30  23  74 N12       30.12R WCI  21
PARSONS        CLOUDY    33  24  69 N13G18    30.07R WCI  24
WICHITA INTL   CLOUDY    38  29  70 N7        30.10R
WICHITA JABRA  CLOUDY    34  28  79 N9        30.09R
WICHITA MCCONL CLOUDY    36  28  74 N9        30.10R
WINFIELD       CLOUDY    36  30  79 N12       30.08R WCI  28
$$

KSZ007>012-019>026-033>040-048>060-102>105-111100-
NORTHEAST KANSAS

CITY           SKY/WX    TMP DP  RH WIND       PRES   REMARKS
CONCORDIA      CLOUDY    25  23  92 N13       30.19R FOG     WCI  14
EMPORIA        CLEAR     26  21  81 NE13      30.12R WCI  15
LAWRENCE       CLEAR     24  19  81 NE12      30.17R WCI  13
MANHATTAN      CLEAR     26  22  84 NE12      30.19R WCI  16
MARYSVILLE     CLOUDY    27  25  93 N9        30.19S
OLATHE IND     PTCLDY    23  19  85 NE8       30.15R
OLATHE EXE     PTCLDY    23  18  81 NE13      30.15R WCI  11
SALINA         CLEAR     31  24  75 N10       30.17R WCI  22
TOPEKA BILLARD CLEAR     25  20  81 N7        30.18R
TOPEKA FORBES  CLEAR     25  20  81 N6        30.16R
$$




USA.gov is the U.S. government's official web portal to all federal, state and local government web resources and services.